Location: Newark
(40.9833°N, 0.0333°W)
Time: 17:28:24
(UTC+00:00)

deb Explorer IX - Pass Details

Date: 02 November 2020
Orbit: 538 x 1104 km, 38.8° (Epoch: 22 November)

Event Time Altitude Azimuth Distance (km) Brightness Sun altitude
Rises 08:33:56 0° 278° (W) 3,570 ? 18.9°
Reaches altitude 10° 08:36:39 10° 270° (W) 2,706 ? 19.3°
Maximum altitude 08:42:34 35° 207° (SSW) 1,611 ? 20.1°
Drops below altitude 10° 08:48:58 10° 145° (SE) 2,932 ? 21.0°
Sets 08:52:01 0° 137° (SE) 3,905 ? 21.4°
